Flag for Ukraine Weather past 2 weeks in Kryvyi Rih, Ukraine

Now
46 °F

Passing clouds.


Feels Like: 38 °F
Forecast: 39 / 52 °F
Wind: 22 mph from South

Location: Krivyy Rih / Dnipropetrovs'k

Current Time: Jan 31, 2015 at 6:24:06 PM

Latest Report: Jan 31, 2015 at 6:00 PM


Visibility: N/A

Pressure: 29.27 "Hg

Humidity: 87%

Dew point: 43 °F

Location of Kryvyi RihLocation

Historic Weather in Kryvyi Rih — Graph

°F

Kryvyi Rih temperature yesterday

Maximum temperature yesterday: 46 °F (at 11:00 PM)
Minimum temperature yesterday: 36 °F (at 12:00 AM)
Average temperature yesterday: 39 °F

Past Weeks' High & Low Weather Summary

 TemperatureHumidityPressure
High48 °F (Jan 31, 2:00 AM)100% (Jan 18, 3:00 AM)30.36 "Hg (Jan 18, 3:00 AM)
Low27 °F (Jan 24, 5:00 PM)60% (Jan 24, 7:00 PM)29.21 "Hg (Jan 31, 4:30 PM)
Average34 °F95%30.04 "Hg
* Reported Jan 16 5:00 PM — Jan 31 5:00 PM, Kryvyi Rih, Weather by CustomWeather, © 2014

Note: Actual official high and low records may vary slightly from our data, if they occured in-between our weather recording intervals... More about our weather records

Advertising

Kryvyi Rih weather history for previous 24 hours

 ConditionsComfort  
Time TempWeatherWind HumidityBarometerVisibility
5:00 PM
Jan 31
48 °FSprinkles. Partly cloudy.22 mph87%29.24 "HgN/A
4:30 PM46 °FSprinkles. More clouds than sun.26 mph93%29.21 "HgN/A
4:00 PM46 °FSprinkles. Mostly cloudy.31 mph93%29.24 "Hg2 mi
3:30 PM46 °FSprinkles. More clouds than sun.26 mph93%29.24 "Hg2 mi
3:00 PM46 °FSprinkles. More clouds than sun.29 mph93%29.24 "Hg2 mi
2:30 PM48 °FSprinkles. More clouds than sun.29 mph87%29.24 "HgN/A
2:00 PM48 °FSprinkles. More clouds than sun.26 mph87%29.27 "Hg3 mi
1:30 PM48 °FSprinkles. More clouds than sun.26 mph82%29.27 "HgN/A
1:00 PM48 °FSprinkles. Cloudy.33 mph82%29.27 "HgN/A
12:30 PM48 °FSprinkles. More clouds than sun.31 mph82%29.30 "HgN/A
12:00 PM48 °FSprinkles. More clouds than sun.31 mph82%29.30 "HgN/A
11:30 AM48 °FOvercast.26 mph71%29.33 "HgN/A
11:02 AM48 °FOvercast.24 mph71%29.33 "HgN/A
11:00 AM48 °FOvercast.24 mph71%29.33 "HgN/A
10:30 AM48 °FMore clouds than sun.26 mph76%29.36 "HgN/A
10:00 AM48 °FMore clouds than sun.24 mph76%29.36 "HgN/A
9:30 AM48 °FOvercast.24 mph76%29.36 "HgN/A
9:00 AM48 °FMore clouds than sun.26 mph76%29.36 "HgN/A
8:30 AM46 °FSprinkles. More clouds than sun.24 mph87%29.39 "HgN/A
8:00 AM46 °FSprinkles. More clouds than sun.22 mph87%29.39 "HgN/A
7:30 AM46 °FSprinkles. More clouds than sun.26 mph76%29.39 "Hg3 mi
7:00 AM46 °FOvercast.24 mph76%29.39 "HgN/A
6:30 AM46 °FOvercast.24 mph76%29.39 "HgN/A
6:00 AM46 °FOvercast.20 mph76%29.39 "HgN/A
5:00 AM46 °FPassing clouds.24 mph66%29.39 "HgN/A
4:30 AM46 °FClear.22 mph66%29.42 "Hg10 mi
4:00 AM46 °FClear.20 mph66%29.42 "Hg10 mi
3:30 AM46 °FClear.20 mph66%29.42 "Hg10 mi
3:00 AM46 °FOvercast.20 mph66%29.42 "HgN/A
2:30 AM48 °FOvercast.22 mph66%29.45 "HgN/A
2:00 AM48 °FOvercast.22 mph66%29.45 "HgN/A
1:30 AM46 °FOvercast.20 mph76%29.45 "HgN/A
1:00 AM46 °FOvercast.20 mph71%29.45 "HgN/A
12:30 AM45 °FLight rain. Overcast.22 mph76%29.47 "HgN/A
12:00 AM45 °FLight rain. Overcast.22 mph76%29.47 "HgN/A
11:30 PM
Jan 30
46 °FLight rain. Overcast.20 mph71%29.47 "Hg2 mi
11:00 PM46 °FOvercast.20 mph71%29.47 "HgN/A
10:30 PM45 °FPassing clouds.20 mph87%29.47 "HgN/A
10:00 PM45 °FPassing clouds.20 mph87%29.50 "HgN/A
9:30 PM45 °FPassing clouds.20 mph87%29.50 "HgN/A
9:00 PM45 °FPassing clouds.22 mph87%29.50 "HgN/A
8:30 PM45 °FClear.20 mph87%29.53 "Hg10 mi
8:00 PM45 °FClear.17 mph87%29.53 "Hg10 mi
7:30 PM43 °FFog.17 mph93%29.53 "Hg3 mi
7:00 PM43 °FFog.17 mph93%29.53 "Hg2 mi
6:30 PM43 °FFog.17 mph93%29.53 "Hg2 mi
6:00 PM43 °FFog.15 mph93%29.56 "Hg2 mi
Weather by CustomWeather, © 2014

See weather overviewHow to use our weather pages